Wind_Speed
19 24 27 16 23 35 27 19 19 15 11 5 1 2 7 8 10 10 10 16 20 35 33 36 37 37 34 35 35 32 27 32 29 24 27 30 26 26 26 29 28 28 27 27 27 29 29 29 31
16 21 14 15 27 31 24 19 19 15 10 7 1 3 5 6 8 11 11 12 23 39 36 42 37 36 32 30 36 38 31 26 26 31 34 27 23 24 26 25 28 30 23 29 33 35 35 35 35
15 19 19 6 24 29 21 19 18 17 15 10 6 4 6 8 9 10 9 10 24 30 41 28 27 39 33 32 29 30 32 29 24 31 27 30 30 30 30 27 31 31 29 34 37 37 37 36 38
15 20 23 22 25 27 24 23 21 20 18 13 11 11 12 10 11 11 11 13 29 21 31 30 31 35 32 32 35 29 25 30 36 28 37 37 35 28 28 31 30 31 33 35 35 39 39 42 41
10 16 14 23 25 24 26 25 25 24 20 18 13 9 8 6 5 10 11 15 31 23 32 33 32 30 35 39 33 36 28 23 25 20 21 24 25 27 29 35 38 39 36 36 39 39 42 42 39
11 8 6 16 20 22 25 26 26 27 26 18 14 12 9 6 9 7 12 18 32 30 35 33 33 30 36 35 38 42 28 27 29 33 32 31 33 36 39 43 38 37 40 42 42 42 39 35 30
9 9 10 17 19 22 24 28 28 30 29 20 17 17 13 8 5 6 10 18 26 34 38 38 36 30 24 29 35 32 37 30 30 35 36 38 39 38 37 36 37 40 44 46 44 42 36 31 32
16 9 5 14 18 20 24 26 28 31 28 21 18 20 16 12 9 2 5 16 29 31 41 32 30 30 27 28 30 36 35 33 34 35 37 35 34 34 34 33 31 30 30 31 30 28 28 24 21
5 8 10 16 15 19 23 25 28 30 26 19 17 18 19 12 11 11 6 2 11 23 26 25 20 30 34 31 32 31 32 34 30 29 28 25 22 20 21 23 27 30 28 27 23 22 18 8 6
8 13 6 10 12 17 20 24 28 29 25 18 16 16 16 14 12 10 10 11 14 21 22 4 16 22 25 25 27 28 30 27 25 15 9 16 18 22 25 25 26 24 22 22 20 15 4 5 6
19 11 16 6 8 16 17 21 26 27 24 20 17 17 15 14 11 8 9 15 22 31 31 28 23 18 23 17 15 17 14 10 4 7 8 16 21 20 21 17 12 8 9 7 6 8 6 6 7
25 24 17 8 11 7 14 16 21 22 20 24 24 20 16 13 13 10 10 17 15 16 17 22 24 11 9 9 13 15 11 8 9 11 12 10 12 9 1 11 17 23 24 20 14 11 3 6 7
19 26 19 10 3 6 10 14 17 20 17 20 23 25 19 13 16 12 12 14 15 12 14 14 14 12 11 11 15 17 13 11 8 5 5 9 10 18 25 32 31 27 24 22 19 19 14 9 7
26 28 21 12 2 2 9 12 15 18 16 18 18 24 22 17 14 15 10 9 9 6 4 4 7 9 12 17 16 13 11 9 11 12 11 21 28 30 31 31 32 29 28 27 22 17 16 17 14
25 27 24 17 7 3 7 11 14 15 17 14 16 20 20 18 19 16 20 21 17 13 10 8 7 9 7 9 13 20 15 15 22 20 21 22 27 30 34 36 36 37 35 31 30 30 26 22 20
37 28 24 22 15 11 9 10 10 10 16 15 14 16 19 15 18 28 32 29 30 27 21 17 15 15 13 11 12 19 20 24 30 26 24 26 30 36 45 47 47 45 38 31 33 33 30 26 22
38 32 27 20 23 16 11 6 5 7 11 15 15 16 15 23 30 30 27 25 26 27 27 27 29 27 26 23 19 29 29 33 34 27 23 27 37 44 49 25 30 36 30 26 29 42 46 42 40
34 40 30 22 26 20 12 10 9 6 6 11 12 14 13 25 26 23 23 19 21 26 28 30 33 35 34 33 31 38 25 32 33 28 24 29 45 51 56 47 47 29 28 27 22 32 45 52 52
49 41 37 35 34 26 19 18 11 6 6 7 8 11 11 21 19 18 17 16 17 20 25 31 36 39 38 37 38 38 37 33 36 30 29 35 42 30 29 36 43 33 30 16 16 30 46 46 48
53 48 51 46 39 32 26 22 12 14 14 6 5 7 7 18 13 17 23 25 22 20 26 33 36 39 41 40 38 36 35 36 36 39 42 42 41 37 29 30 20 33 28 18 20 29 33 26 15
53 54 51 49 43 36 33 27 24 25 17 9 3 5 3 10 8 20 26 26 27 25 25 29 37 40 42 42 41 42 43 45 47 45 42 40 39 39 26 31 34 37 5 16 16 15 12 33 31
54 53 57 50 48 43 36 29 29 27 24 21 9 6 3 11 22 21 23 24 26 27 25 29 31 37 41 43 42 43 44 40 38 38 35 35 33 35 33 38 33 29 14 17 19 20 17 20 14
50 57 59 55 52 48 42 37 35 29 25 24 23 13 11 12 21 20 20 23 23 23 26 26 28 31 33 39 40 39 40 25 32 31 30 32 31 32 34 39 37 39 34 26 23 23 26 33 26
47 57 61 61 61 55 50 45 35 28 28 24 24 18 17 12 22 19 21 22 22 22 21 22 26 27 29 28 31 30 18 27 27 24 26 25 25 27 28 30 31 30 29 26 28 30 32 36 41
51 57 64 67 64 61 55 49 42 41 35 32 28 23 22 19 20 22 23 20 20 19 18 19 21 25 25 27 26 26 30 28 27 25 23 22 23 25 27 29 27 25 27 28 29 31 33 33 35
48 60 65 70 70 67 61 56 48 50 48 41 34 29 25 24 23 23 23 22 22 20 17 16 17 18 22 26 26 27 29 31 28 27 28 28 30 31 29 26 26 29 29 30 30 30 30 32 30
40 62 67 72 76 73 66 62 50 47 54 48 42 37 32 31 30 26 25 25 22 19 17 13 11 14 14 18 25 27 29 29 28 27 28 30 32 23 20 28 31 31 30 29 26 25 24 25 24
33 58 72 76 86 76 71 64 51 41 50 54 49 44 40 34 33 33 30 26 24 19 17 15 11 5 11 15 17 20 21 24 25 25 27 28 28 21 26 28 30 29 25 24 24 21 20 17 17
30 55 71 82 79 73 75 68 44 60 59 43 59 51 45 40 36 39 37 31 25 24 20 18 17 11 9 13 16 16 20 22 22 22 25 23 17 31 26 25 26 23 20 19 19 16 15 11 10
28 54 71 76 79 82 81 81 72 37 73 51 53 59 51 44 41 39 40 37 31 29 28 24 19 17 16 16 17 17 17 19 21 22 21 21 21 23 22 22 21 22 20 17 15 10 10 9 7
Wind_Direction
19 11 24 87 339 350 355 334 326 333 346 5 277 165 164 201 217 218 234 213 197 180 182 183 189 193 213 223 225 218 239 250 255 260 261 266 276 265 262 258 267 269 274 276 279 275 277 283 276
23 23 45 47 342 342 350 338 324 326 336 349 39 216 221 228 230 226 223 227 197 181 185 182 195 204 216 219 219 235 236 237 254 257 259 258 272 279 261 263 267 261 265 254 264 277 280 281 285
23 31 44 355 348 350 345 339 329 322 322 328 322 288 260 263 245 239 224 216 186 188 197 201 205 204 206 212 216 228 239 246 261 247 254 263 273 279 265 267 271 273 259 253 271 277 282 288 288
25 37 8 0 359 354 346 354 340 327 330 331 327 306 291 261 247 236 229 191 168 186 196 201 197 193 200 214 239 229 235 245 248 257 258 260 275 271 276 271 275 273 269 272 274 274 275 283 286
34 59 219 331 356 352 351 360 349 340 343 336 345 344 341 332 282 246 222 194 177 183 192 201 216 220 229 232 221 223 233 243 251 259 257 269 279 276 268 274 279 277 275 276 276 278 280 283 287
35 88 0 350 350 350 355 3 356 351 351 351 2 11 350 314 293 252 213 196 195 198 194 193 207 220 223 222 220 219 243 266 261 260 265 269 263 265 270 275 274 272 271 271 273 275 278 278 274
88 281 327 333 356 350 358 3 2 355 351 1 12 13 8 5 325 235 221 206 214 205 203 205 209 217 213 213 214 228 241 263 261 258 265 273 274 273 275 274 273 273 273 272 272 271 272 265 264
260 257 2 346 1 348 357 3 2 356 356 11 15 28 33 36 33 98 214 212 202 201 209 217 221 223 220 209 225 241 255 263 269 269 272 276 278 277 275 275 276 273 270 268 267 268 266 266 264
180 291 292 326 355 351 359 4 2 3 1 20 29 38 40 35 30 61 73 82 182 192 199 214 236 236 238 239 245 252 260 268 275 274 279 284 281 282 283 283 280 275 272 269 272 269 275 280 249
184 217 259 302 343 349 354 3 3 9 10 22 28 40 21 33 42 49 75 95 128 145 146 190 261 239 237 243 250 259 268 269 270 273 321 290 288 296 291 280 274 274 268 269 267 267 226 191 230
202 217 224 252 340 341 351 8 4 17 17 23 19 22 23 24 63 58 82 105 129 136 136 157 220 251 234 241 251 256 248 240 249 266 270 293 305 293 286 274 272 264 239 228 162 143 168 225 284
206 212 217 198 216 345 350 7 4 23 34 28 28 26 29 34 64 76 97 118 133 151 152 180 199 229 210 234 237 230 247 270 281 281 297 308 273 270 16 93 106 103 103 105 109 103 76 83 103
218 211 210 191 227 342 350 3 5 17 30 25 22 23 29 46 59 82 104 118 131 145 154 180 202 223 215 184 219 228 237 243 243 137 116 349 126 108 104 104 95 93 91 90 87 93 109 102 68
220 215 203 196 192 6 337 359 357 6 19 20 24 25 35 56 69 76 88 115 130 141 162 198 210 209 214 225 239 223 212 191 158 130 126 115 108 111 105 96 93 93 95 98 104 105 79 78 76
211 209 199 202 181 176 115 276 333 351 10 22 25 20 28 59 70 88 92 99 106 105 101 97 73 92 135 186 196 156 193 154 145 133 129 119 120 111 101 102 96 85 82 89 93 90 90 87 84
211 206 204 207 198 187 156 256 298 340 4 11 20 29 24 59 80 100 99 99 94 90 88 80 72 76 80 96 131 146 144 139 136 134 133 131 117 113 108 96 86 73 66 63 82 89 90 92 91
211 205 203 210 210 195 195 229 236 313 3 14 27 29 36 95 101 105 102 93 84 80 71 64 62 68 63 80 111 134 137 138 136 131 131 118 116 116 98 56 70 82 64 71 77 89 86 82 85
208 202 187 201 220 204 200 237 228 261 2 7 35 35 72 105 103 96 91 90 85 75 69 64 63 65 68 76 104 116 120 136 133 130 126 118 122 99 98 111 98 90 90 65 88 91 91 85 84
219 209 186 212 207 199 194 218 220 240 306 350 27 48 105 110 103 92 85 98 89 82 78 75 72 73 80 85 97 108 120 125 121 125 124 123 132 110 125 119 93 78 88 81 95 98 97 93 94
219 211 200 200 198 197 198 198 168 171 258 273 345 44 106 124 97 83 96 96 94 91 94 89 81 82 85 92 99 106 113 115 118 120 118 112 108 121 127 101 109 134 110 113 113 107 114 109 94
221 215 212 201 198 196 197 189 180 183 211 225 285 341 82 154 123 114 99 93 89 87 91 94 92 93 91 92 101 107 111 113 116 114 112 110 109 112 110 101 122 135 164 121 132 120 100 108 102
223 218 215 204 199 195 195 196 193 194 177 211 255 268 254 154 127 120 106 101 87 84 87 90 99 101 99 97 103 106 110 111 111 114 113 112 106 109 107 107 129 129 112 123 106 109 103 98 91
225 218 215 208 201 192 190 192 194 200 202 203 223 223 229 182 144 132 124 115 108 93 83 89 94 112 108 107 107 112 105 107 120 121 114 112 108 106 116 126 128 119 123 121 110 98 87 80 113
231 220 215 209 208 199 194 196 192 195 213 193 207 207 218 201 158 147 143 124 117 110 103 98 94 96 107 123 119 117 108 131 124 127 126 114 108 107 113 115 113 115 115 111 105 98 95 101 109
228 219 213 210 207 209 197 199 194 204 213 209 210 210 212 206 178 163 148 140 129 121 109 105 97 97 102 107 111 121 122 124 125 129 130 128 122 116 120 127 118 109 110 111 112 112 113 110 110
227 215 210 208 207 206 199 199 199 196 209 210 202 211 209 212 206 180 168 154 136 128 124 116 107 104 102 109 115 114 119 124 123 124 125 120 122 119 118 118 120 120 115 117 120 121 123 121 113
235 215 206 207 205 204 200 196 199 205 212 211 207 207 209 210 212 203 182 166 157 150 148 140 126 113 113 113 117 118 121 121 125 129 126 122 119 105 114 132 133 127 121 122 119 121 122 121 114
246 211 201 204 207 200 196 194 203 223 219 212 208 204 209 209 212 211 202 187 176 173 169 171 169 165 145 141 135 129 129 122 121 129 130 131 129 132 150 149 142 135 135 133 129 127 127 122 119
242 208 205 202 202 199 200 194 199 208 216 215 215 208 209 202 213 214 211 203 201 194 190 193 198 210 209 174 162 158 150 150 142 142 146 154 159 148 145 158 166 156 151 147 146 139 140 136 133
233 209 202 206 201 199 201 197 194 191 209 202 207 209 208 210 213 215 211 218 214 209 206 205 214 220 221 212 201 188 183 176 168 163 165 162 153 156 163 165 169 172 175 177 164 163 178 151 156
Height
10962 10960 10953 10951 10941 10950 10947 10947 10944 10939 10935 10932 10930 10929 10928 10925 10928 10927 10927 10927 10930 10933 10939 10943 10946 10950 10954 10956 10959 10960 10963 10964 10967 10967 10967 10967 10967 10968 10968 10969 10969 10970 10970 10969 10969 10968 10967 10966 10966
10963 10963 10963 10956 10956 10955 10948 10948 10945 10940 10936 10932 10930 10928 10927 10926 10925 10925 10925 10925 10928 10933 10936 10940 10943 10947 10951 10953 10955 10959 10962 10963 10965 10965 10965 10965 10965 10965 10965 10967 10967 10967 10967 10967 10965 10964 10962 10962 10962
10966 10969 10967 10965 10960 10957 10953 10950 10946 10940 10935 10932 10930 10927 10925 10925 10924 10923 10923 10924 10927 10932 10935 10937 10941 10944 10948 10951 10955 10958 10961 10962 10963 10963 10962 10961 10962 10963 10963 10964 10964 10964 10965 10964 10962 10961 10960 10959 10959
10973 10974 10969 10971 10962 10959 10957 10951 10945 10939 10934 10929 10926 10924 10922 10920 10920 10921 10921 10923 10926 10929 10931 10935 10940 10943 10947 10950 10955 10958 10959 10960 10959 10960 10960 10960 10960 10960 10960 10961 10960 10960 10959 10958 10957 10957 10957 10956 10954
10973 10979 10970 10974 10964 10961 10959 10951 10945 10938 10933 10928 10922 10920 10919 10917 10917 10917 10920 10923 10924 10926 10930 10935 10940 10942 10946 10949 10952 10954 10957 10956 10958 10957 10957 10957 10956 10956 10956 10956 10956 10955 10954 10953 10951 10951 10951 10950 10949
10973 10974 10975 10970 10967 10963 10958 10951 10945 10939 10932 10926 10921 10918 10917 10916 10912 10915 10917 10922 10924 10925 10928 10933 10937 10940 10943 10947 10948 10950 10954 10954 10955 10954 10955 10955 10955 10955 10954 10952 10950 10949 10948 10948 10947 10947 10947 10947 10946
10978 10970 10975 10970 10966 10963 10959 10952 10945 10940 10934 10926 10922 10918 10915 10913 10910 10913 10915 10921 10919 10921 10925 10930 10933 10937 10940 10943 10947 10950 10951 10952 10952 10952 10953 10952 10951 10950 10948 10946 10944 10943 10942 10942 10942 10943 10945 10945 10945
10972 10972 10975 10971 10966 10965 10960 10953 10947 10941 10935 10927 10923 10919 10916 10914 10913 10911 10911 10913 10914 10920 10927 10930 10935 10936 10938 10940 10944 10947 10949 10950 10950 10950 10951 10948 10946 10944 10942 10940 10939 10937 10937 10935 10937 10939 10941 10942 10944
10979 10978 10978 10974 10970 10967 10962 10955 10949 10944 10939 10932 10927 10923 10920 10917 10915 10913 10911 10910 10913 10922 10932 10941 10943 10941 10938 10937 10939 10941 10946 10948 10950 10951 10951 10947 10943 10940 10938 10936 10935 10934 10934 10934 10936 10936 10938 10941 10944
10980 10975 10978 10976 10973 10970 10963 10958 10952 10945 10941 10935 10930 10927 10924 10921 10918 10916 10915 10915 10915 10924 10952 10945 10941 10938 10936 10936 10935 10938 10941 10945 10950 10952 10957 10937 10945 10940 10935 10931 10929 10932 10932 10934 10935 10937 10939 10942 10945
10978 10977 10976 10978 10976 10971 10966 10960 10955 10949 10944 10939 10935 10931 10928 10924 10922 10920 10919 10921 10920 10929 10942 10912 10930 10938 10936 10934 10935 10936 10939 10945 10948 10949 10951 10950 10943 10936 10930 10928 10927 10929 10930 10932 10936 10940 10944 10947 10948
10972 10975 10977 10978 10977 10970 10967 10963 10958 10952 10949 10944 10939 10936 10932 10928 10924 10923 10923 10925 10924 10930 10939 10937 10938 10938 10934 10933 10933 10937 10940 10945 10945 10942 10945 10940 10938 10935 10933 10927 10929 10931 10934 10937 10941 10946 10951 10952 10951
10972 10973 10972 10973 10973 10970 10969 10965 10961 10956 10952 10948 10945 10940 10935 10931 10928 10928 10928 10928 10930 10930 10935 10935 10935 10933 10929 10929 10931 10936 10939 10944 10942 10942 10937 10932 10934 10937 10935 10932 10934 10935 10939 10943 10948 10953 10954 10956 10958
10968 10968 10967 10969 10972 10972 10969 10965 10964 10960 10955 10952 10949 10945 10941 10936 10933 10933 10933 10932 10931 10930 10929 10928 10930 10930 10926 10927 10930 10934 10938 10943 10945 10945 10939 10941 10940 10942 10939 10941 10944 10946 10946 10947 10950 10953 10957 10959 10961
10957 10963 10963 10966 10970 10971 10969 10967 10969 10965 10959 10956 10953 10950 10946 10942 10939 10939 10939 10938 10936 10934 10932 10929 10925 10925 10926 10927 10928 10932 10933 10941 10948 10949 10947 10946 10944 10945 10949 10948 10952 10954 10955 10953 10950 10952 10957 10961 10962
10955 10959 10963 10965 10969 10969 10971 10971 10972 10967 10963 10961 10958 10955 10952 10948 10945 10945 10946 10946 10945 10943 10940 10935 10931 10928 10926 10924 10924 10927 10934 10941 10949 10952 10953 10950 10954 10953 10956 10964 10966 10964 10967 10970 10962 10957 10958 10962 10964
10951 10957 10962 10962 10964 10967 10969 10972 10973 10969 10967 10966 10962 10960 10958 10953 10952 10952 10952 10951 10950 10948 10945 10941 10936 10931 10929 10924 10923 10928 10935 10942 10947 10954 10956 10956 10960 10962 10963 10981 10977 10967 10972 10978 10983 10969 10965 10971 10973
10945 10953 10961 10964 10961 10965 10965 10969 10972 10970 10970 10969 10967 10964 10963 10961 10960 10958 10957 10956 10955 10952 10949 10945 10940 10935 10932 10928 10926 10931 10941 10947 10951 10955 10957 10961 10967 10971 10976 10981 10964 10966 10978 10987 10992 10987 10977 10981 10985
10939 10947 10956 10960 10959 10963 10964 10967 10970 10971 10970 10971 10970 10967 10967 10965 10966 10964 10962 10960 10959 10958 10955 10951 10947 10943 10940 10937 10936 10937 10945 10952 10956 10958 10962 10961 10973 10969 10959 10970 10966 10971 10984 11002 11011 11001 10985 10985 10988
10928 10939 10943 10945 10953 10960 10962 10966 10967 10966 10969 10971 10973 10969 10970 10969 10970 10970 10968 10965 10963 10964 10962 10958 10955 10952 10948 10947 10947 10949 10955 10957 10964 10965 10968 10971 10975 10971 10960 10971 10960 10975 10982 11003 11021 11012 10987 10983 10989
10921 10929 10936 10942 10950 10956 10960 10963 10964 10968 10971 10971 10972 10973 10972 10972 10973 10976 10974 10972 10969 10968 10968 10966 10964 10961 10959 10959 10960 10961 10964 10967 10972 10974 10978 10978 10983 10981 10974 10973 10969 10984 10976 11005 11014 11010 10994 10984 10995
10908 10925 10927 10939 10943 10950 10956 10959 10962 10965 10968 10970 10971 10974 10975 10974 10976 10979 10979 10977 10976 10973 10974 10973 10972 10970 10970 10969 10970 10968 10973 10975 10978 10981 10986 10986 10987 10989 10992 10990 10989 10990 10998 11010 11019 11008 10994 10994 10990
10899 10908 10918 10929 10936 10944 10949 10952 10956 10960 10963 10967 10973 10975 10978 10977 10977 10980 10983 10981 10980 10979 10979 10979 10978 10978 10979 10978 10977 10979 10980 10985 10985 10988 10992 10995 10995 10995 10998 11006 11011 11015 11020 11023 11015 11004 10997 10996 11005
10887 10895 10906 10917 10927 10934 10943 10947 10952 10958 10962 10965 10970 10975 10978 10978 10980 10982 10985 10984 10984 10984 10984 10984 10984 10983 10984 10986 10984 10984 10983 10989 10991 10995 10999 11003 11003 11004 11004 11007 11013 11015 11018 11016 11011 11006 11004 11013 11021
10868 10877 10889 10902 10915 10926 10936 10942 10949 10954 10959 10964 10969 10975 10979 10980 10983 10984 10987 10987 10987 10987 10989 10989 10989 10990 10990 10990 10991 10991 10992 10994 10998 11002 11005 11007 11006 11007 11008 11010 11014 11014 11014 11014 11014 11016 11020 11026 11029
10851 10861 10875 10887 10902 10913 10925 10935 10940 10946 10951 10958 10962 10970 10976 10981 10985 10986 10988 10989 10989 10990 10992 10994 10994 10995 10996 10995 10996 10997 10999 11002 11003 11006 11008 11008 11011 11013 11013 11015 11017 11018 11022 11023 11025 11029 11032 11032 11030
10835 10846 10860 10872 10885 10898 10913 10925 10934 10940 10944 10952 10958 10966 10972 10977 10982 10986 10987 10989 10990 10992 10994 10997 10999 11000 11001 11002 11002 11003 11005 11007 11009 11010 11011 11014 11018 11019 11030 11025 11026 11026 11030 11033 11035 11036 11035 11032 11030
10822 10829 10842 10854 10861 10886 10903 10920 10931 10939 10938 10944 10950 10959 10965 10970 10978 10984 10986 10988 10990 10992 10994 10997 11000 11002 11003 11004 11006 11007 11009 11011 11012 11012 11014 11017 11019 11021 11036 11032 11033 11032 11036 11037 11036 11036 11036 11036 11035
10810 10815 10831 10834 10859 10888 10901 10911 10917 10919 10925 10936 10944 10950 10957 10966 10968 10977 10982 10985 10988 10991 10994 10997 10999 11002 11004 11006 11007 11009 11011 11012 11013 11014 11015 11018 11018 11021 11024 11029 11031 11031 11034 11037 11036 11037 11038 11038 11038
10800 10806 10815 10835 10853 10862 10875 10894 10895 10887 10905 10923 10930 10941 10949 10955 10964 10970 10978 10982 10985 10988 10991 10994 10999 11000 11002 11005 11007 11008 11010 11012 11013 11013 11014 11016 11017 11019 11023 11026 11027 11027 11030 11032 11033 11033 11034 11034 11034